[[{"header":{"parameterUnit":"m.s-1","parameterCategory":1,"la1":30.2991,"la2":30.254,"lo1":-89.0895,"lo2":-89.0444,"dy":0.0017,"dx":0.0017,"nx":28,"ny":28,"refTime":"2025-01-31T09:00:00:Z","depth":0,"parameterNumber":2,"parameterNumberName":"U-component_of_WINDS"},"data":[0,0,0,0,0,0,0,0,0,0,0,0,0,0,0,0,0,0,0,0,0,0,0,0,0,0,0,0,0,0,0,0,0,0,0,0,0,0,0,0,0,0,0,0,0,0,0,0,0,0,0,0,0,0,0,0,0,0,2.9934,2.9935,0,2.9983,2.9983,2.9984,2.9948,2.9947,2.9945,2.9944,2.9994,2.9996,2.9999,0,0,0,0,0,0,0,0,0,0,0,0,0,2.9812,2.9815,2.9934,2.9935,2.9936,2.9983,2.9983,2.9984,2.9949,2.9947,2.9945,2.9943,2.9993,2.9996,2.9999,0,0,0,0,0,0,0,0,0,0,0,0,0,2.9863,2.9815,2.9934,2.9923,2.9923,2.9983,2.9983,2.9984,2.9949,2.9947,2.9944,2.9942,2.9992,2.9996,3.0,3.0073,0,0,3.0013,3.0014,0,0,0,0,0,0,0,0,2.9861,2.9868,2.9924,2.9924,2.9924,2.9957,2.9959,3.0014,2.995,2.9939,2.9944,2.9941,2.9983,2.9988,3.0002,3.0075,3.0077,3.0013,3.0015,3.0017,3.0018,0,0,0,0,0,0,0,2.9857,2.9866,2.9953,2.9925,2.9925,2.9917,2.9921,2.9969,2.9974,2.994,2.9937,2.9944,2.9983,2.9998,3.0003,3.0078,3.0013,3.0016,3.0019,3.0021,3.0215,3.0217,0,0,0,0,0,0,2.9854,2.9863,2.9952,2.9955,2.9886,2.9921,2.9926,2.9949,2.9973,2.9975,2.9946,2.9942,2.9992,2.9998,3.0005,3.0093,3.0017,3.0021,3.0024,3.0212,3.0215,3.0218,0,0,0,0,0,0,2.9852,2.9863,2.995,2.9908,2.9919,2.9925,2.9951,2.9951,2.9967,2.9978,2.9978,2.9961,2.9991,2.9999,3.0056,3.0094,3.0023,3.0027,3.0209,3.0213,3.0217,3.0269,0,0,0,0,0,0,2.9849,2.9862,2.9889,2.9909,2.9921,3.0001,2.9954,2.9954,2.9974,2.9969,2.9992,2.9993,2.999,3.005,3.0061,3.0099,3.003,3.0206,3.0211,3.0215,3.0264,3.0274,3.0283,0,0,0,0,0,2.9844,2.9902,2.9891,2.9902,2.9955,3.0003,3.001,3.0004,2.9977,3.0005,3.0012,2.9993,3.0088,3.0057,3.0068,3.0108,3.0203,3.0209,3.0215,3.026,3.0272,3.0283,0,0,0,0,0,0,2.9886,2.9904,2.9892,2.9958,2.9979,2.9997,3.0031,3.0017,3.0047,3.0041,3.0033,3.0039,3.0099,3.0109,3.0073,3.018,3.0142,3.015,3.0172,3.0184,3.0193,3.019,3.0034,0,0,0,0,0,2.9903,2.9939,2.9953,3.001,3.0021,3.0025,3.0045,3.0039,3.0061,3.007,3.0081,3.0103,3.0138,3.0161,3.0194,3.0265,3.0271,3.0299,3.0308,3.0316,3.0323,3.0363,3.0376,3.0238,3.0238,3.0237,0,0,2.9938,2.9952,2.9976,3.0019,3.0034,3.0073,3.0032,3.0075,3.0104,3.0076,3.0131,3.0141,3.0165,3.023,3.0259,3.024,3.0363,3.0324,3.033,3.0333,3.0371,3.0384,3.0396,3.0242,3.0241,3.024,0,0,3.0022,3.0036,3.0085,3.0102,3.0127,3.0129,3.0141,3.0161,3.0166,3.0222,3.0202,3.0237,3.0297,3.0316,3.0333,3.0426,3.0409,3.0437,3.0487,3.0526,3.0537,3.0547,3.0581,3.0593,3.0444,3.0444,3.0445,0,3.0062,3.0119,3.0112,3.0157,3.0177,3.0154,3.0205,3.0221,3.0256,3.027,3.0248,3.0325,3.0339,3.0409,3.0432,3.0446,3.0461,3.0434,3.0536,3.0546,3.0555,3.0587,3.06,3.0448,3.0447,3.0447,3.0447,0,3.0169,3.0209,3.0246,3.028,3.0304,3.0351,3.0352,3.0378,3.037,3.0375,3.0433,3.0449,3.0486,3.0502,3.0495,3.0572,3.0559,3.0537,3.0498,3.0571,3.0602,3.0614,3.0452,3.0451,3.045,3.0449,0,0,3.028,3.031,3.0324,3.034,3.0366,3.0397,3.0444,3.048,3.0502,3.0527,3.0567,3.0619,3.0599,3.0619,3.0614,3.0648,3.0722,3.0622,3.0622,3.0641,3.081,3.0827,3.0842,3.0712,3.0714,3.0716,3.0808,0,3.0366,3.0447,3.0443,3.0519,3.0557,3.0537,3.0578,3.0598,3.0605,3.0638,3.0645,3.0683,3.0653,3.0665,3.0698,3.0706,3.0756,3.07,3.0749,3.0751,3.0745,3.0857,3.0875,3.0962,3.082,3.0822,3.0823,0,3.0477,3.0506,3.0586,3.0608,3.0624,3.066,3.0694,3.0726,3.075,3.0752,3.0775,3.0765,3.0813,3.0773,3.084,3.0801,3.0822,3.0829,3.0833,3.0837,3.0792,3.0866,3.0989,3.1002,3.0842,3.0841,3.0839,0,3.0551,3.061,3.0666,3.068,3.0707,3.0733,3.0746,3.0767,3.079,3.0819,3.0834,3.0869,3.0888,3.0916,3.0916,3.0886,3.0984,3.0943,3.0988,3.0989,3.101,3.1009,3.1139,3.1022,3.1022,3.1022,3.1021,0,3.0648,3.0698,3.07,3.0735,3.0791,3.0786,3.0842,3.0852,3.0871,3.0908,3.0892,3.0927,3.0925,3.096,3.0961,3.1017,3.1026,3.103,3.1029,3.1031,3.1031,3.1045,3.1039,3.1025,3.1024,3.1024,3.1023,0,3.074,3.0743,3.0803,3.0824,3.0831,3.0871,3.0889,3.0923,3.0928,3.0975,3.0985,3.0994,3.1035,3.1038,3.1085,3.1085,3.1155,3.1147,3.1147,3.1146,3.1191,3.1187,3.1335,3.1354,3.1224,3.1225,3.1226,0,3.0802,3.084,3.0866,3.0889,3.0903,3.0941,3.0964,3.0961,3.0986,3.1017,3.1047,3.1087,3.1119,3.1187,3.1197,3.1234,3.1228,3.1277,3.1233,3.1235,3.123,3.1228,3.1233,3.1286,3.1287,3.1289,3.129,0,3.0912,3.0912,3.0946,3.0981,3.1009,3.1037,3.1062,3.1082,3.1083,3.1112,3.1154,3.1179,3.1228,3.1268,3.1305,3.1318,3.1305,3.1303,3.1316,3.1319,3.1318,3.132,3.1171,3.13,3.1299,3.1298,3.1298,3.1297,3.0992,3.1026,3.1049,3.1088,3.1107,3.1131,3.1164,3.1174,3.1209,3.1249,3.1245,3.1292,3.1317,3.1364,3.1381,3.1418,3.1402,3.1419,3.1424,3.1429,3.1434,3.1311,3.1425,3.1424,3.1424,3.1424,3.1424,0,3.1103,3.1117,3.1152,3.1189,3.122,3.1204,3.1232,3.1259,3.1301,3.1324,3.1356,3.1406,3.1445,3.146,3.1498,3.1526,3.1521,3.1536,3.1535,3.1538,3.1446,3.1432,3.154,3.154,3.154,3.154,3.154,3.154,3.1164,3.122,3.1223,3.129,3.1304,3.135,3.1367,3.139,3.141,3.1465,3.1498,3.1507,3.1528,3.1568,3.1604,3.1608,3.1623,3.1642,3.1643,3.1556,3.1545,3.1533,3.152,3.1645,3.1645,3.1732,3.1732,3.1733]},{"header":{"parameterUnit":"m.s-1","parameterCategory":1,"la1":30.2991,"la2":30.254,"lo1":-89.0895,"lo2":-89.0444,"dy":0.0017,"dx":0.0017,"nx":28,"ny":28,"refTime":"2025-01-31T09:00:00:Z","depth":0,"parameterNumber":3,"parameterNumberName":"V-component_of_WINDS"},"data":[0,0,0,0,0,0,0,0,0,0,0,0,0,0,0,0,0,0,0,0,0,0,0,0,0,0,0,0,0,0,0,0,0,0,0,0,0,0,0,0,0,0,0,0,0,0,0,0,0,0,0,0,0,0,0,0,0,0,-0.7367,-0.7368,0,-0.7389,-0.7389,-0.739,-0.7413,-0.7413,-0.7413,-0.7414,-0.7436,-0.7436,-0.7436,0,0,0,0,0,0,0,0,0,0,0,0,0,-0.7346,-0.7346,-0.7367,-0.7368,-0.7368,-0.7389,-0.7389,-0.739,-0.7413,-0.7413,-0.7413,-0.7414,-0.7436,-0.7436,-0.7436,0,0,0,0,0,0,0,0,0,0,0,0,0,-0.736,-0.7346,-0.7367,-0.7382,-0.7383,-0.7389,-0.7389,-0.739,-0.7413,-0.7413,-0.7413,-0.7414,-0.7436,-0.7436,-0.7437,-0.743,0,0,-0.7438,-0.7438,0,0,0,0,0,0,0,0,-0.7359,-0.7361,-0.7379,-0.7381,-0.7383,-0.7399,-0.739,-0.7403,-0.7412,-0.7401,-0.7414,-0.7414,-0.7423,-0.7425,-0.7428,-0.7431,-0.7432,-0.7438,-0.7438,-0.7438,-0.7439,0,0,0,0,0,0,0,-0.7358,-0.736,-0.7376,-0.738,-0.7382,-0.7388,-0.739,-0.7393,-0.7409,-0.7402,-0.7404,-0.7406,-0.7424,-0.7427,-0.7428,-0.7432,-0.7438,-0.7438,-0.7439,-0.7439,-0.7432,-0.7432,0,0,0,0,0,0,-0.7355,-0.7359,-0.7375,-0.7377,-0.7372,-0.7388,-0.739,-0.7393,-0.7409,-0.7412,-0.7406,-0.7407,-0.7426,-0.7428,-0.7429,-0.7423,-0.7438,-0.7439,-0.7439,-0.7432,-0.7432,-0.7431,0,0,0,0,0,0,-0.7355,-0.7356,-0.7374,-0.7368,-0.7371,-0.7387,-0.739,-0.7393,-0.7396,-0.7412,-0.7415,-0.7406,-0.7427,-0.7429,-0.743,-0.7424,-0.7439,-0.7439,-0.7433,-0.7432,-0.7432,-0.741,0,0,0,0,0,0,-0.7354,-0.7356,-0.7353,-0.7368,-0.7371,-0.7374,-0.739,-0.7393,-0.7397,-0.7399,-0.7413,-0.7416,-0.7427,-0.7429,-0.743,-0.7425,-0.744,-0.7434,-0.7433,-0.7432,-0.7411,-0.7409,-0.7406,0,0,0,0,0,-0.7353,-0.7346,-0.7353,-0.7355,-0.7368,-0.7374,-0.7376,-0.7389,-0.7396,-0.7394,-0.7405,-0.7415,-0.7425,-0.7429,-0.743,-0.7425,-0.7434,-0.7433,-0.7432,-0.7412,-0.7409,-0.7407,0,0,0,0,0,0,-0.733,-0.7348,-0.7356,-0.7354,-0.7362,-0.7378,-0.7375,-0.7385,-0.7391,-0.7393,-0.7409,-0.7412,-0.7412,-0.7419,-0.7423,-0.742,-0.7431,-0.743,-0.7416,-0.7413,-0.741,-0.7408,-0.744,0,0,0,0,0,-0.7324,-0.7327,-0.7343,-0.7339,-0.7343,-0.7358,-0.7361,-0.7371,-0.738,-0.7384,-0.7394,-0.7403,-0.7408,-0.7411,-0.7416,-0.7413,-0.7416,-0.741,-0.7408,-0.7406,-0.7405,-0.7404,-0.7402,-0.7428,-0.7428,-0.7428,0,0,-0.7313,-0.7324,-0.7324,-0.7335,-0.7343,-0.7345,-0.7361,-0.7363,-0.7366,-0.7384,-0.7386,-0.7394,-0.7405,-0.7404,-0.7404,-0.741,-0.7399,-0.7404,-0.7403,-0.7403,-0.7403,-0.7401,-0.7399,-0.7427,-0.7428,-0.7428,0,0,-0.7294,-0.7302,-0.73,-0.7308,-0.7319,-0.733,-0.7329,-0.7344,-0.735,-0.7352,-0.7366,-0.7369,-0.7377,-0.7385,-0.739,-0.7375,-0.7386,-0.7376,-0.7364,-0.7363,-0.7361,-0.736,-0.7355,-0.7353,-0.7376,-0.7376,-0.7376,0,-0.7278,-0.7283,-0.7298,-0.7299,-0.7304,-0.7322,-0.732,-0.7327,-0.7339,-0.7343,-0.7349,-0.736,-0.7369,-0.737,-0.7367,-0.737,-0.7371,-0.7375,-0.736,-0.7359,-0.7357,-0.7353,-0.7351,-0.7374,-0.7375,-0.7375,-0.7375,0,-0.7264,-0.7267,-0.7264,-0.7276,-0.7281,-0.7281,-0.7296,-0.7299,-0.7309,-0.7318,-0.7321,-0.7332,-0.7341,-0.7342,-0.7351,-0.7345,-0.7348,-0.7357,-0.7368,-0.7353,-0.735,-0.7348,-0.7373,-0.7373,-0.7373,-0.7374,0,0,-0.723,-0.7251,-0.725,-0.7256,-0.727,-0.7273,-0.7275,-0.7283,-0.7286,-0.7294,-0.7296,-0.7303,-0.7312,-0.7317,-0.7328,-0.7327,-0.7316,-0.7337,-0.7337,-0.7333,-0.7311,-0.7304,-0.7302,-0.7323,-0.7323,-0.7323,-0.731,0,-0.7213,-0.7216,-0.723,-0.723,-0.7233,-0.725,-0.7252,-0.7261,-0.7271,-0.7275,-0.7286,-0.7291,-0.7302,-0.7306,-0.7306,-0.7317,-0.7312,-0.7318,-0.7326,-0.7326,-0.7322,-0.73,-0.7293,-0.728,-0.7309,-0.7309,-0.7308,0,-0.7194,-0.7202,-0.7202,-0.7217,-0.7219,-0.722,-0.723,-0.7234,-0.7245,-0.7252,-0.7259,-0.7271,-0.7274,-0.7285,-0.729,-0.7294,-0.7298,-0.7304,-0.7304,-0.7305,-0.7316,-0.7301,-0.7276,-0.7275,-0.7306,-0.7306,-0.7307,0,-0.717,-0.718,-0.7182,-0.7187,-0.7204,-0.7205,-0.7212,-0.7224,-0.7229,-0.7237,-0.7241,-0.7249,-0.7254,-0.7261,-0.7275,-0.7282,-0.7279,-0.729,-0.7285,-0.7285,-0.7284,-0.7283,-0.726,-0.7286,-0.7286,-0.7286,-0.7286,0,-0.715,-0.7149,-0.7171,-0.7172,-0.7172,-0.7189,-0.7188,-0.7197,-0.7208,-0.7211,-0.7227,-0.723,-0.7249,-0.7254,-0.7265,-0.7268,-0.727,-0.7276,-0.7279,-0.7275,-0.7274,-0.7277,-0.7279,-0.7285,-0.7286,-0.7286,-0.7286,0,-0.7123,-0.7137,-0.714,-0.7157,-0.7162,-0.7161,-0.7176,-0.7178,-0.7189,-0.7193,-0.7195,-0.7212,-0.7219,-0.7234,-0.7245,-0.7253,-0.7253,-0.7259,-0.7249,-0.7251,-0.7245,-0.7246,-0.7223,-0.7221,-0.7248,-0.7248,-0.7248,0,-0.7109,-0.7109,-0.7127,-0.713,-0.7137,-0.7142,-0.7147,-0.7164,-0.7169,-0.7182,-0.7183,-0.7191,-0.7199,-0.721,-0.7223,-0.7232,-0.7238,-0.723,-0.7239,-0.7235,-0.7238,-0.7238,-0.7239,-0.7227,-0.7227,-0.7226,-0.7226,0,-0.7084,-0.7091,-0.7098,-0.7107,-0.7113,-0.7121,-0.713,-0.7132,-0.7151,-0.7156,-0.7163,-0.7169,-0.7181,-0.719,-0.7201,-0.7209,-0.7221,-0.7223,-0.7222,-0.7218,-0.7213,-0.7216,-0.7243,-0.7223,-0.7224,-0.7224,-0.7224,-0.7224,-0.7063,-0.7065,-0.7077,-0.7084,-0.7093,-0.7101,-0.7104,-0.7116,-0.7122,-0.7133,-0.7143,-0.715,-0.7163,-0.7179,-0.7187,-0.7193,-0.7199,-0.7197,-0.7197,-0.7197,-0.7195,-0.7212,-0.7195,-0.7195,-0.7195,-0.7195,-0.7195,0,-0.7039,-0.7049,-0.7055,-0.7067,-0.7073,-0.7084,-0.7095,-0.7099,-0.7105,-0.7116,-0.7123,-0.7132,-0.7141,-0.7156,-0.7166,-0.7168,-0.7174,-0.717,-0.717,-0.7172,-0.7189,-0.7189,-0.7165,-0.7165,-0.7165,-0.7165,-0.7165,-0.7165,-0.7027,-0.703,-0.7039,-0.7046,-0.7056,-0.7063,-0.7068,-0.7076,-0.7085,-0.7095,-0.7102,-0.7112,-0.7125,-0.7136,-0.7145,-0.7149,-0.7152,-0.7147,-0.7153,-0.7168,-0.7171,-0.7174,-0.7173,-0.7147,-0.7147,-0.7135,-0.7135,-0.7135]}]]